Temp
-14 -14 -14 -14 -14 -14 -14 -14 -14 -14 -14 -14 -13 -13 -13 -13 -13 -13 -12 -13 -12 -12 -12 -12 -12 -12 -12 -12 -12 -13 -12 -12 -12 -12 -13 -13 -12 -12 -13 -12 -12 -13 -13
-14 -14 -14 -14 -14 -14 -14 -14 -14 -14 -14 -14 -14 -14 -13 -13 -13 -13 -13 -13 -13 -12 -12 -13 -13 -13 -13 -12 -13 -13 -13 -13 -13 -13 -13 -13 -13 -13 -13 -13 -13 -13 -13
-14 -14 -14 -15 -15 -15 -15 -15 -15 -15 -15 -14 -14 -14 -14 -14 -14 -14 -14 -13 -13 -13 -13 -13 -13 -13 -13 -13 -13 -13 -13 -13 -13 -14 -13 -14 -13 -13 -13 -13 -13 -13 -13
-15 -15 -15 -15 -15 -15 -15 -15 -15 -15 -15 -15 -15 -15 -15 -15 -15 -14 -14 -14 -14 -14 -14 -14 -14 -14 -14 -14 -14 -14 -14 -14 -14 -14 -14 -14 -14 -14 -14 -14 -14 -15 -13
-16 -16 -16 -16 -16 -16 -16 -16 -16 -16 -16 -16 -16 -16 -16 -16 -16 -15 -15 -15 -15 -15 -15 -15 -15 -15 -15 -15 -15 -15 -15 -14 -14 -14 -14 -15 -14 -15 -15 -14 -14 -14 -14
-17 -17 -17 -17 -17 -17 -17 -17 -17 -17 -17 -17 -16 -17 -17 -17 -16 -16 -16 -17 -17 -17 -17 -17 -17 -17 -17 -17 -17 -16 -16 -16 -16 -16 -15 -16 -16 -15 -15 -15 -15 -15 -14
-18 -18 -18 -18 -18 -18 -18 -18 -18 -18 -17 -17 -18 -18 -17 -17 -17 -17 -18 -18 -18 -18 -18 -18 -18 -18 -18 -18 -17 -17 -17 -16 -16 -16 -16 -17 -17 -17 -16 -16 -15 -15 -15
-18 -18 -18 -18 -18 -18 -18 -18 -18 -18 -18 -18 -18 -18 -18 -18 -18 -18 -18 -18 -18 -18 -18 -18 -18 -18 -18 -18 -18 -18 -18 -18 -17 -17 -17 -17 -17 -17 -17 -17 -16 -16 -15
-18 -18 -18 -18 -18 -18 -19 -19 -19 -18 -18 -19 -19 -19 -19 -19 -19 -19 -19 -19 -19 -19 -19 -19 -19 -19 -19 -19 -19 -19 -19 -19 -18 -18 -18 -17 -17 -17 -17 -17 -17 -16 -16
-18 -18 -18 -19 -19 -19 -19 -19 -19 -19 -19 -19 -19 -19 -19 -19 -19 -19 -19 -19 -19 -20 -20 -20 -20 -20 -20 -19 -19 -19 -19 -19 -19 -19 -18 -18 -18 -18 -18 -17 -17 -17 -16
-18 -19 -19 -19 -19 -19 -19 -19 -20 -20 -19 -19 -19 -19 -19 -19 -20 -20 -20 -20 -20 -20 -20 -20 -20 -20 -20 -20 -20 -20 -20 -20 -19 -19 -19 -19 -18 -18 -18 -18 -18 -17 -17
-18 -19 -19 -19 -19 -19 -20 -20 -20 -20 -20 -20 -20 -20 -20 -20 -20 -20 -20 -21 -21 -21 -21 -21 -21 -21 -21 -21 -21 -21 -21 -21 -21 -20 -20 -19 -19 -19 -18 -18 -18 -18 -17
-19 -19 -19 -20 -20 -20 -20 -20 -20 -20 -20 -21 -21 -20 -20 -21 -21 -21 -21 -21 -21 -21 -21 -21 -21 -21 -21 -21 -21 -21 -21 -21 -21 -21 -20 -20 -19 -19 -19 -19 -18 -19 -18
-20 -20 -20 -20 -20 -20 -20 -20 -21 -21 -21 -21 -21 -21 -21 -21 -21 -21 -21 -21 -21 -21 -21 -22 -22 -22 -22 -21 -21 -21 -22 -22 -22 -22 -21 -21 -21 -20 -20 -19 -19 -19 -19
-20 -20 -20 -20 -20 -21 -21 -21 -21 -21 -21 -21 -21 -21 -21 -21 -22 -21 -21 -22 -22 -22 -22 -22 -22 -22 -21 -21 -21 -22 -22 -22 -22 -22 -22 -22 -22 -22 -22 -21 -20 -20 -19
-20 -20 -20 -21 -21 -21 -21 -22 -22 -22 -22 -21 -21 -22 -22 -22 -22 -22 -22 -22 -22 -22 -22 -22 -22 -22 -21 -21 -21 -21 -21 -22 -22 -22 -22 -22 -22 -22 -22 -22 -22 -21 -21
-21 -21 -21 -21 -22 -22 -22 -22 -22 -22 -22 -22 -22 -22 -22 -22 -22 -22 -22 -22 -23 -23 -23 -23 -22 -22 -22 -22 -22 -21 -21 -21 -21 -22 -22 -22 -22 -22 -22 -22 -23 -23 -22
-21 -21 -22 -22 -22 -22 -22 -22 -22 -22 -22 -22 -23 -22 -22 -22 -22 -22 -23 -23 -23 -23 -23 -23 -23 -22 -22 -22 -22 -22 -21 -21 -21 -21 -22 -22 -22 -22 -22 -22 -22 -23 -22
-22 -22 -22 -22 -22 -23 -23 -23 -23 -23 -23 -23 -23 -23 -23 -22 -22 -23 -23 -23 -23 -23 -23 -23 -23 -22 -22 -22 -22 -22 -22 -22 -22 -22 -22 -22 -22 -22 -22 -22 -22 -22 -22
-22 -22 -22 -22 -23 -23 -23 -23 -23 -23 -24 -23 -23 -23 -23 -23 -23 -23 -23 -23 -23 -23 -23 -23 -23 -23 -23 -22 -22 -22 -22 -22 -22 -22 -22 -22 -22 -22 -22 -22 -22 -23 -23
-22 -23 -23 -23 -23 -23 -23 -23 -23 -24 -24 -23 -23 -23 -23 -23 -23 -23 -23 -23 -23 -23 -23 -23 -23 -23 -23 -23 -23 -23 -23 -23 -22 -22 -22 -22 -22 -22 -22 -22 -22 -22 -22
-23 -23 -23 -24 -24 -23 -24 -24 -24 -24 -24 -24 -24 -24 -23 -23 -24 -24 -23 -23 -23 -23 -23 -23 -23 -23 -23 -23 -23 -23 -23 -23 -23 -23 -22 -23 -23 -23 -23 -23 -23 -23 -23
-23 -23 -24 -24 -23 -24 -24 -24 -24 -24 -24 -24 -24 -24 -23 -24 -24 -24 -23 -23 -23 -23 -23 -23 -23 -23 -23 -23 -24 -24 -24 -24 -24 -23 -23 -23 -23 -23 -23 -23 -23 -23 -23
-24 -24 -25 -24 -23 -24 -24 -24 -24 -24 -24 -24 -24 -24 -24 -24 -24 -23 -23 -23 -23 -23 -23 -23 -23 -24 -24 -24 -24 -24 -24 -24 -24 -24 -24 -24 -24 -24 -24 -24 -24 -24 -24
-24 -24 -24 -24 -24 -24 -24 -24 -24 -24 -25 -24 -25 -24 -24 -24 -24 -23 -23 -23 -23 -24 -24 -24 -24 -24 -24 -25 -25 -25 -25 -24 -24 -24 -24 -24 -24 -24 -24 -25 -25 -26 -26
-24 -24 -24 -24 -24 -25 -25 -25 -25 -25 -25 -25 -25 -24 -24 -24 -24 -23 -23 -23 -24 -24 -24 -24 -24 -24 -25 -25 -25 -25 -25 -25 -24 -24 -25 -25 -25 -25 -25 -25 -26 -27 -27
Height
5762 5761 5761 5760 5760 5760 5760 5759 5758 5758 5758 5757 5756 5755 5754 5754 5753 5752 5752 5751 5751 5750 5749 5749 5748 5749 5749 5748 5748 5748 5748 5749 5750 5751 5752 5753 5754 5755 5756 5757 5759 5762 5764
5754 5753 5753 5752 5752 5752 5751 5751 5750 5749 5748 5747 5745 5745 5744 5743 5743 5742 5741 5740 5739 5738 5737 5737 5737 5737 5737 5737 5737 5736 5737 5738 5738 5739 5740 5742 5744 5745 5747 5747 5750 5753 5755
5745 5745 5744 5744 5743 5743 5742 5741 5741 5740 5739 5739 5737 5735 5734 5733 5732 5731 5730 5729 5728 5727 5725 5724 5724 5724 5724 5724 5723 5723 5724 5724 5725 5727 5728 5730 5732 5734 5736 5738 5739 5743 5745
5736 5736 5736 5736 5735 5735 5734 5733 5732 5731 5730 5729 5728 5726 5724 5723 5721 5719 5718 5717 5716 5715 5714 5713 5711 5710 5710 5710 5710 5709 5710 5711 5711 5712 5714 5716 5718 5721 5724 5726 5730 5734 5734
5726 5727 5727 5726 5726 5726 5724 5724 5722 5721 5720 5719 5717 5715 5713 5711 5708 5707 5706 5705 5704 5702 5700 5699 5698 5697 5696 5695 5695 5694 5694 5695 5696 5697 5699 5701 5704 5706 5709 5712 5715 5719 5723
5716 5717 5716 5716 5716 5715 5714 5713 5712 5711 5709 5708 5705 5703 5701 5699 5697 5696 5695 5694 5692 5690 5688 5687 5685 5684 5682 5682 5680 5680 5679 5679 5679 5680 5682 5684 5687 5690 5694 5697 5700 5703 5707
5706 5706 5706 5706 5706 5705 5704 5703 5702 5700 5698 5696 5695 5693 5689 5686 5685 5684 5683 5681 5680 5678 5676 5675 5673 5671 5669 5667 5666 5664 5663 5663 5663 5664 5667 5668 5670 5673 5676 5680 5685 5689 5691
5695 5695 5694 5694 5694 5694 5693 5692 5691 5690 5689 5687 5684 5681 5678 5676 5674 5673 5671 5670 5668 5666 5664 5662 5660 5657 5655 5652 5650 5648 5647 5647 5646 5646 5648 5650 5652 5656 5660 5663 5668 5673 5677
5685 5685 5686 5686 5685 5684 5683 5682 5680 5679 5678 5676 5673 5670 5668 5666 5664 5663 5661 5659 5656 5654 5652 5650 5647 5644 5642 5639 5637 5635 5633 5632 5631 5630 5631 5632 5634 5636 5641 5646 5650 5656 5660
5674 5675 5675 5675 5675 5675 5674 5672 5670 5668 5666 5664 5662 5660 5658 5657 5654 5653 5651 5649 5647 5644 5641 5638 5636 5633 5632 5629 5627 5625 5622 5620 5619 5618 5618 5617 5617 5618 5622 5627 5632 5637 5643
5666 5666 5666 5666 5666 5665 5663 5661 5660 5658 5655 5653 5652 5649 5648 5647 5644 5643 5641 5639 5636 5633 5632 5630 5627 5625 5623 5620 5617 5614 5611 5609 5607 5605 5604 5603 5603 5604 5606 5609 5613 5619 5625
5656 5657 5656 5656 5656 5655 5653 5651 5649 5648 5646 5644 5643 5641 5639 5637 5636 5634 5631 5629 5627 5625 5623 5621 5619 5617 5614 5611 5608 5606 5602 5599 5597 5594 5592 5592 5591 5591 5592 5594 5597 5601 5607
5647 5647 5647 5646 5645 5644 5643 5641 5640 5639 5637 5636 5635 5633 5631 5629 5626 5624 5622 5621 5619 5618 5616 5614 5612 5609 5606 5603 5601 5598 5595 5592 5588 5586 5584 5581 5580 5579 5580 5581 5583 5586 5590
5637 5637 5636 5636 5635 5634 5633 5632 5631 5630 5629 5627 5626 5624 5621 5619 5617 5615 5614 5613 5612 5611 5609 5607 5604 5602 5600 5597 5595 5592 5588 5585 5582 5579 5577 5574 5571 5569 5568 5569 5570 5572 5575
5627 5627 5627 5626 5626 5625 5625 5624 5623 5621 5620 5619 5617 5614 5611 5610 5608 5607 5606 5606 5605 5604 5601 5600 5597 5596 5593 5591 5589 5586 5583 5580 5577 5574 5571 5568 5565 5562 5559 5558 5559 5560 5563
5618 5618 5618 5618 5617 5617 5616 5615 5613 5612 5611 5609 5607 5605 5603 5601 5600 5600 5600 5600 5598 5596 5594 5592 5590 5589 5587 5585 5582 5580 5577 5574 5571 5569 5566 5562 5559 5556 5553 5551 5550 5550 5551
5608 5609 5609 5608 5608 5607 5606 5606 5605 5604 5602 5600 5598 5597 5595 5593 5593 5593 5593 5592 5591 5588 5587 5586 5584 5583 5581 5579 5577 5574 5571 5568 5565 5562 5560 5557 5554 5550 5547 5545 5543 5542 5542
5598 5599 5600 5599 5599 5598 5598 5597 5596 5595 5593 5591 5590 5588 5586 5586 5586 5587 5586 5584 5583 5581 5580 5579 5578 5577 5575 5572 5570 5567 5564 5561 5558 5555 5552 5549 5547 5544 5542 5539 5537 5535 5534
5589 5590 5591 5591 5590 5590 5589 5588 5587 5586 5584 5582 5581 5579 5578 5579 5580 5580 5579 5577 5575 5575 5574 5573 5572 5569 5567 5564 5561 5559 5557 5554 5551 5548 5545 5543 5540 5537 5535 5532 5530 5528 5526
5580 5581 5582 5583 5582 5581 5581 5580 5578 5577 5576 5574 5572 5571 5571 5572 5573 5572 5571 5570 5569 5568 5568 5566 5564 5561 5559 5556 5554 5552 5549 5546 5543 5541 5538 5535 5532 5529 5527 5525 5523 5520 5518
5571 5572 5573 5574 5574 5573 5572 5571 5569 5568 5567 5565 5564 5564 5565 5565 5565 5565 5564 5563 5563 5562 5561 5559 5556 5554 5551 5549 5546 5543 5541 5538 5534 5532 5529 5526 5524 5521 5518 5515 5513 5511 5508
5562 5564 5565 5565 5564 5564 5563 5562 5561 5560 5560 5558 5557 5557 5557 5558 5558 5557 5557 5556 5556 5554 5553 5551 5548 5546 5543 5540 5537 5534 5531 5528 5525 5522 5520 5517 5514 5511 5508 5504 5501 5500 5498
5554 5556 5555 5556 5555 5555 5555 5554 5553 5553 5552 5551 5550 5550 5550 5550 5550 5549 5549 5549 5548 5546 5545 5543 5540 5537 5533 5531 5528 5525 5522 5518 5515 5511 5509 5506 5504 5501 5497 5493 5489 5486 5484
5545 5544 5544 5546 5547 5546 5546 5545 5545 5545 5545 5544 5543 5542 5542 5542 5541 5541 5541 5541 5540 5538 5537 5534 5531 5528 5524 5520 5517 5514 5511 5507 5505 5501 5498 5495 5492 5489 5485 5480 5476 5472 5469
5534 5535 5535 5537 5537 5537 5537 5537 5537 5537 5536 5536 5535 5534 5534 5534 5533 5532 5532 5531 5530 5529 5526 5524 5521 5518 5515 5511 5507 5504 5501 5497 5494 5491 5487 5484 5480 5476 5472 5467 5462 5457 5453
5524 5525 5526 5527 5527 5527 5528 5528 5528 5528 5527 5527 5526 5525 5525 5525 5524 5523 5523 5522 5521 5519 5517 5514 5512 5508 5505 5501 5498 5494 5489 5486 5482 5478 5474 5470 5466 5461 5457 5452 5448 5442 5438
Wind_Speed
36 36 35 34 33 34 35 34 35 37 37 36 35 36 37 38 39 40 41 42 43 43 44 45 45 47 48 49 49 50 50 49 48 47 46 45 45 45 45 43 42 39 38
37 37 35 34 34 35 35 36 38 39 39 39 40 41 42 43 44 44 45 46 47 48 49 49 48 49 50 51 53 54 54 54 53 52 51 50 49 49 47 48 46 44 41
37 36 36 36 36 35 37 39 40 41 41 41 43 45 46 47 47 48 49 49 50 49 50 51 52 52 52 53 55 56 57 57 57 57 56 55 54 53 52 51 50 48 48
35 36 36 36 36 38 40 42 43 44 45 45 47 48 49 50 49 49 49 49 49 50 50 51 52 53 53 55 56 58 60 60 62 61 61 61 60 57 56 55 54 52 50
38 39 39 39 40 41 42 44 46 47 48 48 50 52 51 48 47 47 48 49 49 49 48 48 50 53 54 56 58 60 62 64 65 66 65 64 63 63 61 60 59 56 54
40 40 40 41 42 43 44 45 47 48 48 50 51 49 49 48 49 50 50 50 47 47 49 50 52 51 53 55 57 60 62 62 64 66 66 66 66 66 65 65 64 61 59
40 41 42 43 44 44 44 45 46 48 50 51 50 50 48 47 47 46 44 44 45 46 47 50 52 54 55 56 59 61 64 65 67 66 64 63 64 63 65 66 68 68 65
44 43 45 45 45 45 46 46 47 48 49 50 48 45 43 44 44 44 45 45 46 48 49 50 52 55 57 58 58 58 59 61 63 66 67 67 64 64 63 63 66 69 69
46 46 45 45 44 42 43 45 47 48 48 45 42 42 43 44 45 46 45 46 47 48 50 50 49 48 46 45 45 45 47 48 50 52 56 62 64 66 66 63 62 66 69
43 42 41 41 42 42 43 45 44 44 42 42 43 44 44 44 43 43 43 44 43 42 43 42 40 40 40 41 42 42 43 44 45 46 48 50 51 55 59 63 66 64 65
45 42 42 42 42 43 43 41 40 40 41 43 43 42 43 43 41 40 39 39 39 38 37 36 37 37 36 36 37 38 39 40 42 42 43 45 49 49 51 53 59 65 67
44 44 44 43 40 39 37 37 38 39 41 40 40 39 39 40 41 40 40 38 35 33 34 33 33 32 32 32 33 34 34 36 37 38 39 40 43 45 47 48 50 56 63
38 38 38 37 36 36 36 37 38 38 37 37 36 37 39 40 41 39 35 32 30 31 31 30 29 29 29 28 28 29 30 30 30 31 33 35 38 42 44 46 47 49 53
37 37 36 35 35 35 35 35 35 35 36 36 37 39 40 40 38 33 30 27 28 28 27 26 25 25 26 26 26 26 27 27 27 26 27 26 31 35 38 41 45 48 49
41 40 39 38 36 34 34 34 34 34 35 37 38 39 39 36 32 29 26 27 27 26 24 23 24 24 24 25 25 25 26 26 26 26 26 26 27 26 30 34 39 44 48
41 42 41 37 35 35 34 33 33 34 35 37 38 37 33 31 30 25 25 26 24 23 23 23 24 24 25 25 25 26 26 26 26 26 26 27 27 27 26 28 30 35 41
41 40 37 36 34 34 33 33 32 34 36 36 36 33 31 30 25 24 24 24 22 22 25 26 26 27 27 27 27 27 27 27 28 28 27 26 26 27 28 26 28 29 33
38 38 37 37 35 33 32 31 33 34 35 34 32 31 30 26 24 24 23 22 20 23 25 28 28 29 28 28 28 29 29 30 31 30 31 31 30 29 28 28 29 29 31
37 37 38 36 32 30 32 32 34 35 34 31 32 29 27 24 24 22 22 20 21 24 25 27 28 28 29 30 31 31 31 32 32 32 32 33 33 33 32 32 30 31 31
35 37 35 32 29 31 32 34 35 32 30 30 30 27 24 24 23 22 20 19 22 23 24 25 26 28 30 32 33 33 34 34 33 33 33 33 33 34 35 36 36 36 33
34 35 34 31 30 31 32 34 31 28 28 29 28 26 24 24 22 22 19 19 21 22 24 27 29 30 31 33 33 34 34 34 34 34 34 34 34 36 37 38 38 39 41
41 32 34 36 35 33 33 30 25 27 27 28 27 25 25 24 22 21 19 20 22 25 27 29 31 33 34 35 35 35 35 36 36 35 35 35 37 38 40 42 43 43 43
44 37 31 39 37 36 32 29 27 28 30 29 27 26 25 25 23 21 21 23 25 27 30 32 33 35 37 37 37 36 36 36 37 37 38 38 39 41 42 44 46 48 48
40 42 37 39 43 41 32 32 29 30 31 31 28 28 27 27 24 23 24 26 28 31 32 34 36 37 39 40 39 39 38 38 38 38 40 41 43 44 44 46 49 50 50
40 39 37 41 38 36 35 32 30 33 35 33 31 29 29 29 26 26 28 30 31 33 34 37 39 40 40 40 41 41 41 40 39 40 42 43 46 47 48 50 51 52 52
39 39 39 40 38 32 31 31 31 33 36 35 34 31 31 31 29 28 30 32 34 35 37 38 40 42 42 42 42 42 42 41 42 43 45 47 49 51 52 52 52 52 52
Wind_Direction
267 264 264 265 266 266 267 270 272 273 275 277 279 281 282 282 283 285 285 286 285 283 279 276 274 272 270 268 267 266 265 265 265 263 261 260 259 261 261 260 260 261 261
265 264 264 264 264 266 269 271 273 275 277 280 282 283 284 286 286 286 286 286 286 285 283 280 277 273 270 267 266 264 263 262 261 260 259 259 258 258 258 260 258 259 258
262 263 264 265 266 270 271 271 271 272 274 276 278 280 282 283 284 286 286 285 284 281 279 277 275 272 267 264 262 261 261 261 260 259 259 257 258 257 257 256 258 254 256
266 266 264 265 267 268 269 269 269 271 273 274 276 278 280 282 284 286 286 284 283 282 279 277 275 272 270 266 263 261 260 260 260 259 257 256 255 253 254 255 254 252 255
263 261 261 262 264 264 265 265 267 270 273 275 277 279 282 285 287 287 286 285 283 281 278 274 274 273 270 267 266 264 262 260 260 259 260 257 255 252 249 250 251 251 247
256 258 259 261 262 262 263 266 269 273 277 279 281 284 287 289 289 289 288 287 286 283 282 281 280 279 278 276 275 272 268 267 265 262 260 259 257 254 251 248 248 247 248
260 259 258 260 261 263 267 271 276 279 281 284 286 286 289 292 292 292 290 289 287 286 285 284 283 283 283 283 281 277 274 272 271 269 267 265 262 258 254 249 247 246 244
255 255 256 258 260 265 271 278 281 282 284 285 288 292 294 295 294 294 292 292 289 289 287 286 284 283 282 281 278 275 272 270 267 265 264 263 261 259 258 255 251 247 246
262 263 265 269 272 278 281 281 282 282 284 287 292 294 294 294 294 293 292 290 287 285 284 284 285 284 283 281 280 278 276 275 273 270 267 264 262 259 254 252 252 250 246
273 275 278 280 280 280 279 279 281 283 285 289 292 293 294 293 292 291 289 287 286 284 285 285 284 284 284 284 282 281 279 278 275 271 268 266 265 262 258 252 249 247 246
279 279 277 276 277 277 276 277 280 284 289 291 292 293 294 293 292 291 288 286 285 287 285 285 286 287 288 287 286 285 284 283 280 277 272 268 264 264 262 256 249 247 245
272 273 274 274 273 274 276 280 284 287 288 289 290 292 291 289 287 286 285 284 284 283 287 287 287 288 288 289 288 288 288 287 284 281 276 271 267 264 262 260 256 247 243
271 271 271 273 276 278 280 282 283 284 285 287 288 288 288 285 284 284 282 278 279 285 286 284 287 289 291 292 294 294 293 292 290 288 284 278 272 268 263 258 256 252 245
279 277 277 277 278 279 279 280 282 282 285 286 287 288 285 284 282 280 277 276 281 282 282 285 287 290 291 295 298 300 300 300 296 297 292 296 286 274 267 263 257 253 251
281 280 279 277 276 277 277 279 280 283 286 288 287 285 284 281 279 277 273 279 279 280 285 289 291 290 294 297 301 302 304 305 304 302 300 298 299 302 282 269 261 256 251
277 278 277 274 274 275 275 278 282 285 285 288 286 283 281 277 275 270 274 276 279 284 289 290 289 292 294 297 301 304 308 309 308 307 306 303 303 301 306 286 275 264 257
277 276 272 272 273 274 276 279 281 282 286 286 284 280 277 276 267 267 271 276 282 290 293 291 290 291 291 293 296 300 304 307 310 312 313 312 309 307 304 303 284 276 267
272 272 272 270 272 275 278 279 281 285 287 286 284 278 275 268 262 266 271 277 288 294 294 295 294 292 294 295 296 298 301 304 306 309 312 313 315 314 310 303 299 287 275
269 270 269 272 274 274 279 282 284 285 284 284 285 279 271 261 262 266 272 281 292 294 295 292 292 294 296 298 300 301 302 302 303 305 307 308 308 309 310 310 304 295 289
272 272 270 271 273 274 280 283 283 279 279 283 283 275 262 257 261 265 271 283 288 288 290 291 294 298 300 301 300 300 300 301 302 302 303 303 307 308 306 306 305 303 296
275 270 268 270 273 277 284 285 278 271 281 285 280 268 257 256 259 264 272 280 281 286 292 295 299 301 302 300 299 299 299 299 299 301 303 302 304 305 306 304 302 300 298
267 261 267 272 274 274 285 280 270 273 287 289 279 262 256 256 259 265 274 279 285 293 295 298 301 303 301 301 301 302 302 301 300 299 302 304 305 306 307 306 303 299 295
264 250 268 264 275 273 278 269 268 276 286 288 277 261 255 256 259 266 274 281 289 293 295 298 302 303 303 303 302 300 298 299 300 301 302 302 303 305 305 305 304 301 296
258 259 271 268 263 277 272 264 270 276 284 290 278 263 258 258 261 269 277 283 289 291 294 299 302 303 302 302 302 301 300 299 299 301 303 303 303 303 304 304 302 300 297
260 264 252 269 268 268 266 265 275 278 283 287 278 266 260 259 261 270 278 284 287 291 295 299 301 303 301 300 300 299 298 298 298 300 300 301 302 303 304 303 302 300 297
261 261 258 263 266 259 260 266 273 281 283 283 278 269 260 260 262 268 274 279 284 287 292 296 298 299 298 298 298 297 297 297 299 301 301 302 303 304 304 303 302 299 297